Location: Unspecified
(44.0704°N, 88.6889°W)
Time: 21:55:23
(UTC+02:00)

Transit 2A - Pass Details

Date: 24 June 2019
Orbit: 597 x 962 km, 66.7° (Epoch: 21 August)

Event Time Altitude Azimuth Distance (km) Brightness Sun altitude
Rises 16:44:21 0° 325° (NW) 3,427 9.1 45.7°
Reaches altitude 10° 16:46:57 10° 323° (NW) 2,431 8.4 46.2°
Maximum altitude 16:52:27 63° 243° (WSW) 848 6.7 47.1°
Drops below altitude 10° 16:57:20 10° 163° (SSE) 2,171 8.8 48.0°
Sets 16:59:34 0° 160° (SSE) 3,033 9.4 48.4°
